Погода Александровское

Погода Александровское : погода сейчас, прогноз погоды и архив. Всё, что Вы хотите узнать о погоде Александровское!

Хотите узнать прогноз погоды Александровское? Тогда Вам сюда: Погода Александровское

Поиск расширенной информации на нашем сайте:

Другие новости

Новости СМИ2

Главная страница сайта

Новости сайта

03.07.2017

Напоминаем, что на нашем специализированном сайте Метеоцентр.Азия вы можете получить высокодетализированные автоматические прогнозы погоды по пунктам России, СНГ и мира в авиационном формате (включающие направление и скорость ветра, видимость, явления погоды, количество и форму облачности, нижнюю и верхнюю границу облачности).

Рекомендуем: Пансионаты для отдыха с детьми родители с детьми.

Погода Александровское - сегодня

Время (UTC), дата Ветер
(°,м/с) 
Видим.   Явления Облачность Т
(°С)
Тd
(°С)
f(%) Тe
(°С)
Pmin
(гПа)
dP
(гПа)
Po
(мм)
O2
(г/м3)
Тmin Tmax R s Состояние
почвы
18 20.07.17 240 (ЮЗ) 50000 м    5/5 1000 м 
[Cu Sc]
+14 +12.9 93 +20  1012.4  0.5  755  287           
21 20.07.17 310 (СЗ) 20000 м    9/9 1000 м 
[Sc]
+13.7 +12.9 95 +20  1012.6  0.2  755  287           
00 21.07.17 350 (С) 20000 м    8/6 1000 м средняя 
[Sc|Ac trans]
+14.8 +14 95 +23  1013.2  0.7  756  286  +12.2        влажная 
03 21.07.17 010 (С) 20000 м    4/0 средняя 
[Ac lent]
+21 +14.7 67 +29  1013.6  0.5  756  280           
06 21.07.17 360 (С) 20000 м    3/0 средняя, верхняя 
[Ac lent|Ci fib]
+24.5 +14.6 54 +32  1013.8  0.2  756  277           
09 21.07.17 070 (В) 20000 м    4/4 600 м кучево-дожд. 
[Cb cap]
+27.5 +13.2 41 +33  1012.9  -0.9  755  274           
12 21.07.17 020 (С) 20000 м    5/3 600 м верхняя 
[Cu med, cong|Ci fib]
+27 +13.3 43 +33  1012.6  -0.3  755  274    +27.8       
15 21.07.17 320 (СЗ) 20000 м  гроза без осадков  8/6 300 м кучево-дожд., верхняя 
[Cb cap|Ci fib]
+25.1 +15.2 54 +34  1013.1  0.5  756  276           
18 21.07.17 310 (СЗ) 50000 м  {гроза}  6/3 300 м кучево-дожд., верхняя 
[Cb cap|Ci fib]
+17.4 +15.7 90 +29  1013.2  756  283           
21 21.07.17 310 (СЗ) 20000 м    3/1 300 м кучево-дожд., верхняя 
[Cb cap|Ci fib]
+14.5 +13.5 94 +22  1012.9  -0.4  755  286           
00 22.07.17 330 (СЗ) 20000 м    5/1 1000 м верхняя 
[Sc|Ci fib]
+17.6 +14.9 84 +27  1013.4  0.6  756  283  +13.4        сухая 
03 22.07.17 030 (СВ) 20000 м    4/0 средняя, верхняя 
[Ac trans|Ci fib]
+22.4 +16.3 68 +33  1013  -0.4  755  278           
06 22.07.17 100 (В) 20000 м    5/1 600 м средняя, верхняя 
[Cu hum|Ac trans|Ci sp]
+27.8 +14.3 44 +35  1012.6  -0.2  755  273           
09 22.07.17 050 (СВ) 3{11}  20000 м  гроза, ливневой дождь  9/9 600 м кучево-дожд. 
[Cb cap]
+21.4 +14.6 65 +29  1012.9  0.2  755  279           
12 22.07.17 320 (СЗ) 20000 м  {гроза, ливн. осадки}  10/3 600 м верхняя 
[Cu Sc|Cs]
+22.1 +15.4 66 +31  1012.5  -0.4  755  278    +28.8  0.4     
15 22.07.17 170 (Ю) 20000 м    9/1 1000 м средняя, верхняя 
[Sc|Ac trans|Ci fib]
+19.4 +16.5 83 +32  1013  0.4  755  281           
18 22.07.17 250 (З) 50000 м  местами туман поземный  5/3 1000 м средняя 
[Sc|Ac trans]
+14.9 +14 94 +23  1013  -0.1  755  286           
21 22.07.17 тихо ()   20000 м  местами туман поземный  3/3 1000 м 
[Sc]
+14.6 +13.9 96 +21  1012.9  -0.1  755  286           
00 23.07.17 050 (СВ) 20000 м    5/1 1000 м верхняя 
[Sc|Ci fib]
+16.3 +15.6 96 +28  1012.9  0.1  755  284  +13.5        сухая 
03 23.07.17 090 (В) 20000 м    1/0 верхняя 
[Ci fib]
+20.6 +15.8 74 +30  1013  0.2  756  280           
06 23.07.17 080 (В) 20000 м    1/1 600 м 
[Cu hum]
+24.8 +15.2 55 +34  1012.4  -0.6  755  276           
09 23.07.17 090 (В) 20000 м    6/6 600 м 
[Cu med, cong]
+26.5 +14 46 +33  1011.1  -1.3  754  274           
12 23.07.17 110 (В) 20000 м  гроза без осадков  8/8 600 м кучево-дожд., верхняя 
[Cb cap|Ci fib]
+25.7 +13.2 46 +31  1010.6  -0.5  754  275    +26.7       
15 23.07.17 100 (В) 1{10}  20000 м  {гроза, ливн. осадки}  10/4 600 м кучево-дожд., средняя, верхняя 
[Cb cap|Ac trans|Ci fib]
+17.6 +16.6 94 +30  1011.1  0.4  754  282           
18 23.07.17 030 (СВ) 50000 м  местами туман поземный{гроза, ливн. осадки}  6/3 600 м средняя 
[Sc|Ac trans]
+16.1 +15.4 96 +26  1010.5  -0.6  754  283           
Время (UTC), дата Ветер
(°,м/с) 
Видим.   Явления Облачность Т
(°С)
Тd
(°С)
f(%) Тe
(°С)
Pmin
(гПа)
dP
(гПа)
Po
(мм)
O2
(г/м3)
Тmin Tmax R s Состояние
почвы

Для получения пояснительной информации подведите курсор к названию столбца.

ПОГОДА Александровское - архив

Всё, что Вы хотите узнать о погоде Александровское - удобно и подробно!

Выберите нужную дату (начиная с 1 января 2015* года) и нажмите кнопку "Найти".
Будут отображены архивные сводки погоды по пункту Александровское, начиная с указанной даты.


Отображать данные в формате CSV (для использования в таблицах Excel)


Внимание! Наш архив погоды предназначен исключительно для личного некоммерческого использования в познавательных целях. Если Вам необходимы официальные справки о состоянии погоды (для производственных, юридических, коммерческих и т.п. целей), обращайтесь в органы Росгидромета.

*Примечание: данная дата относится к архиву по метеостанциям СССР (Россия, СНГ, Балтия).
Архив по метеостанциям Зарубежной Европы и Азии (кроме Китая) хранится 10 дней, по другим регионам земного шара (Китай, Африка, Америка, Австралия, Океания) - 1 день.

Александровское - район местоположения метеостанции


Название, широта, долгота, высота метеостанции:
Александровское 60.4°ш. 77.9°д. 48 м над ур. моря [Российская Федерация]

Дополнительная информация

В oтличие oт бoльшинства пoгoдных сайтoв мы публикуем пoдрoбную метеoинфoрмацию в детальнoм прoфессиoнальнoм фoрмате.

Характеристики температуры и влажнoсти вoздуха измеряются на высoте 2 м в тени вдали oт зданий и деревьев.
Скoрoсть ветра измеряется на высoте 10 м (на урoвне рoста челoвека скoрoсть ветра ниже в 1.5-2 раза). Если метеoстанция нахoдится в гoрoде или в лесу, тo скoрoсть ветра занижена на 2-4 м/с пo сравнению с oткрытым местoм. Скoрoсть ветра над акватoриями крупных рек и oзёр, а также на вершинах хoлмoв на 2-5 м/с выше, чем в oбычных услoвиях.
Атмoсфернoе давление в разных тoчках местнoсти мoжет значительнo oтличаться oт давления на метеoстанции, в зависимoсти oт услoвий рельефа (при пoдъёме на 10 м давление пoнижается примернo на 1 мм рт.ст.).